Location: Rehoboth Beach
(38.7438°N, 75.1341°W)
Time: 20:08:19
(UTC-04:00)

Hubble Space Telescope - Visible Passes

Search period start: 26 June 2017 00:00
Search period end: 06 July 2017 00:00
Orbit: 538 x 541 km, 28.5° (Epoch: 26 June)

Date Brightness Start Highest point End Pass type
(mag) Time Alt. Az. Time Alt. Az. Time Alt. Az.
30 Jun 3.0 04:58:19 10° S 05:00:02 12° SSE 05:01:47 10° SE visible
01 Jul 2.9 04:47:37 10° SSW 04:49:50 14° SSE 04:52:03 10° SE visible
02 Jul 2.7 04:37:39 12° SSW 04:39:38 16° S 04:42:10 10° SE visible
03 Jul 2.5 04:28:00 15° SSW 04:29:27 17° S 04:32:11 10° SE visible
04 Jul 2.4 04:18:22 17° S 04:19:15 18° S 04:22:08 10° SE visible
05 Jul 2.3 04:08:49 19° S 04:09:04 19° S 04:12:03 10° SE visible
